Starlink 4594

operational
NORAD ID: 53638 Int'l Des: 2022-104 Owner: SPXS Country: US Constellation: starlink
LEOCIRCULAR

Über Starlink 4594

Beschreibung wird geladen...

Live-Position

3D-Globus wird geladen...

Nächste Überflüge

Höhenverlauf

Altitude vs Time

uPlot chart will show altitude changes over time

Zweizeiliger Elementsatz

1 53638U 22104BC 25353.03009727 .00000097 00000-0 24165-4 0 9998
2 53638 53.2162 225.8487 0001427 88.2589 271.8567 15.08840227184057
Epoch: 19. Dez. 2025 • Age: 18 hours

Aktueller Status

Höhe 548.7 km
Geschwindigkeit 7.59 km/s
Subsatellitenpunkt -28.14°S, 49.77°E
Startdatum 28. Aug. 2022
Alter 3.3 years
Typ internet

Technische Details

Klassifizierung Payload
Masse 300.00 kg
Trockenmasse 290.00 kg
Gesamtmasse 300.00 kg
Länge 0.20 m
Durchmesser 2.80 m
Spannweite 9.00 m
Form Box + pan
Hersteller SPXS
Bus-Typ Starlink
Phasenstatus In Orbit
Besitzer/Staat SPXS/US

Große Konstellationen

Loading constellations...